| time (UTC) | temp F | wind direction | speed MPH | gust MPH | rain 1hr in | rain 24hr in | rain mn in | humidity % | barometer mb |
| 20260510192748 | 84 | 13 | 1.0 | 1.0 | 0.00 | 0.00 | 0.00 | 42 | 1010.3 |
| 20260510192244 | 88 | 4 | 1.0 | 2.0 | 0.00 | 0.00 | 0.00 | 38 | 1010.2 |
| 20260510191740 | 87 | 29 | 0.0 | 1.0 | 0.00 | 0.00 | 0.00 | 39 | 1010.2 |
| 20260510191236 | 86 | 20 | 0.0 | 1.0 | 0.00 | 0.00 | 0.00 | 41 | 1010.4 |
| 20260510190734 | 84 | 29 | 1.0 | 2.0 | 0.00 | 0.00 | 0.00 | 41 | 1010.4 |
| 20260510190231 | 85 | 19 | 1.0 | 2.0 | 0.00 | 0.00 | 0.00 | 43 | 1010.4 |
| 20260510185727 | 86 | 29 | 0.0 | 1.0 | 0.00 | 0.00 | 0.00 | 41 | 1010.3 |
| 20260510185226 | 86 | 46 | 0.0 | 1.0 | 0.00 | 0.00 | 0.00 | 43 | 1010.6 |
| 20260510184722 | 84 | 59 | 1.0 | 2.0 | 0.00 | 0.00 | 0.00 | 44 | 1010.3 |
| 20260510184219 | 83 | 54 | 0.0 | 2.0 | 0.00 | 0.00 | 0.00 | 45 | 1010.4 |
| 20260510183714 | 83 | 50 | 1.0 | 2.0 | 0.00 | 0.00 | 0.00 | 46 | 1010.5 |
| 20260510183208 | 83 | 66 | 1.0 | 3.0 | 0.00 | 0.00 | 0.00 | 47 | 1010.6 |
| 20260510182706 | 83 | 73 | 1.0 | 3.0 | 0.00 | 0.00 | 0.00 | 48 | 1010.7 |
| 20260510182201 | 82 | 71 | 1.0 | 2.0 | 0.00 | 0.00 | 0.00 | 48 | 1010.7 |
| 20260510181658 | 82 | 77 | 2.0 | 2.0 | 0.00 | 0.00 | 0.00 | 47 | 1010.6 |
| 20260510181155 | 82 | 69 | 1.0 | 2.0 | 0.00 | 0.00 | 0.00 | 47 | 1010.5 |
| 20260510180651 | 82 | 40 | 1.0 | 1.0 | 0.00 | 0.00 | 0.00 | 51 | 1010.8 |
| 20260510180149 | 82 | 40 | 1.0 | 1.0 | 0.00 | 0.00 | 0.00 | 47 | 1011.0 |
| 20260510175645 | 82 | 51 | 1.0 | 3.0 | 0.00 | 0.00 | 0.00 | 47 | 1011.0 |
| 20260510175141 | 80 | 32 | 0.0 | 2.0 | 0.00 | 0.00 | 0.00 | 50 | 1011.1 |
| 20260510174638 | 81 | 343 | 3.0 | 5.0 | 0.00 | 0.00 | 0.00 | 51 | 1011.2 |
| 20260510174136 | 82 | 43 | 0.0 | 1.0 | 0.00 | 0.00 | 0.00 | 46 | 1011.1 |
| 20260510173631 | 81 | 59 | 1.0 | 2.0 | 0.00 | 0.00 | 0.00 | 49 | 1011.0 |
| 20260510173127 | 81 | 59 | 1.0 | 2.0 | 0.00 | 0.00 | 0.00 | 47 | 1011.4 |
| 20260510172623 | 80 | 60 | 1.0 | 1.0 | 0.00 | 0.00 | 0.00 | 48 | 1011.4 |
| 20260510172120 | 79 | 47 | 0.0 | 0.0 | 0.00 | 0.00 | 0.00 | 48 | 1011.4 |
| 20260510171616 | 79 | 30 | 0.0 | 1.0 | 0.00 | 0.00 | 0.00 | 50 | 1011.5 |
| 20260510171114 | 78 | 59 | 1.0 | 2.0 | 0.00 | 0.00 | 0.00 | 49 | 1011.5 |
| 20260510170610 | 79 | 353 | 3.0 | 6.0 | 0.00 | 0.00 | 0.00 | 48 | 1011.6 |
| 20260510170107 | 79 | 21 | 0.0 | 0.0 | 0.00 | 0.00 | 0.00 | 48 | 1011.7 |
| 20260510165603 | 79 | 19 | 1.0 | 1.0 | 0.00 | 0.00 | 0.00 | 48 | 1011.8 |
| 20260510165058 | 78 | 25 | 0.0 | 1.0 | 0.00 | 0.00 | 0.00 | 48 | 1011.8 |
| 20260510164556 | 78 | 16 | 1.0 | 1.0 | 0.00 | 0.00 | 0.00 | 49 | 1011.8 |
| 20260510164052 | 78 | 29 | 1.0 | 2.0 | 0.00 | 0.00 | 0.00 | 51 | 1011.7 |
| 20260510163548 | 78 | 25 | 1.0 | 1.0 | 0.00 | 0.00 | 0.00 | 50 | 1011.9 |
| 20260510163044 | 78 | 13 | 1.0 | 2.0 | 0.00 | 0.00 | 0.00 | 50 | 1011.9 |
| 20260510162539 | 78 | 326 | 3.0 | 3.0 | 0.00 | 0.00 | 0.00 | 50 | 1011.8 |
| 20260510162036 | 78 | 10 | 1.0 | 2.0 | 0.00 | 0.00 | 0.00 | 50 | 1012.0 |
| 20260510161532 | 78 | 14 | 1.0 | 2.0 | 0.00 | 0.00 | 0.00 | 50 | 1011.8 |
| 20260510161029 | 77 | 11 | 1.0 | 2.0 | 0.00 | 0.00 | 0.00 | 51 | 1011.9 |
| 20260510160526 | 78 | 16 | 1.0 | 1.0 | 0.00 | 0.00 | 0.00 | 51 | 1011.8 |
| 20260510160025 | 79 | 19 | 0.0 | 1.0 | 0.00 | 0.00 | 0.00 | 50 | 1012.0 |
| 20260510155522 | 80 | 21 | 2.0 | 2.0 | 0.00 | 0.00 | 0.00 | 49 | 1011.9 |
| 20260510155018 | 79 | 32 | 0.0 | 1.0 | 0.00 | 0.00 | 0.00 | 50 | 1011.7 |
| 20260510154515 | 78 | 28 | 0.0 | 1.0 | 0.00 | 0.00 | 0.00 | 52 | 1011.9 |
| 20260510154014 | 77 | 60 | 1.0 | 1.0 | 0.00 | 0.00 | 0.00 | 54 | 1012.0 |
| 20260510153504 | 76 | 74 | 2.0 | 2.0 | 0.00 | 0.00 | 0.00 | 58 | 1011.8 |
| 20260510153002 | 76 | 49 | 0.0 | 0.0 | 0.00 | 0.00 | 0.00 | 61 | 1012.1 |
| 20260510152458 | 75 | 45 | 1.0 | 1.0 | 0.00 | 0.00 | 0.00 | 63 | 1012.0 |
| 20260510151954 | 74 | 24 | 0.0 | 0.0 | 0.00 | 0.00 | 0.00 | 66 | 1011.8 |
| 20260510151452 | 74 | 354 | 2.0 | 2.0 | 0.00 | 0.00 | 0.00 | 68 | 1012.0 |
| 20260510150948 | 73 | 8 | 2.0 | 2.0 | 0.00 | 0.00 | 0.00 | 67 | 1012.0 |
| 20260510150444 | 73 | 13 | 1.0 | 2.0 | 0.00 | 0.00 | 0.00 | 71 | 1011.7 |
| 20260510145940 | 72 | 358 | 2.0 | 2.0 | 0.00 | 0.00 | 0.00 | 72 | 1012.0 |
| 20260510145437 | 72 | 22 | 0.0 | 1.0 | 0.00 | 0.00 | 0.00 | 73 | 1012.1 |
| 20260510144933 | 71 | 22 | 1.0 | 1.0 | 0.00 | 0.00 | 0.00 | 74 | 1012.0 |
| 20260510144430 | 71 | 14 | 1.0 | 2.0 | 0.00 | 0.00 | 0.00 | 75 | 1011.7 |
| 20260510143925 | 71 | 18 | 0.0 | 1.0 | 0.00 | 0.00 | 0.00 | 76 | 1011.9 |
| 20260510143421 | 71 | 23 | 1.0 | 1.0 | 0.00 | 0.00 | 0.00 | 76 | 1011.6 |
| 20260510142918 | 70 | 23 | 1.0 | 1.0 | 0.00 | 0.00 | 0.00 | 77 | 1011.9 |
| 20260510142415 | 69 | 16 | 1.0 | 2.0 | 0.00 | 0.00 | 0.00 | 77 | 1012.0 |
| 20260510141911 | 69 | 17 | 1.0 | 1.0 | 0.00 | 0.00 | 0.00 | 78 | 1011.9 |
| 20260510141408 | 69 | 24 | 1.0 | 1.0 | 0.00 | 0.00 | 0.00 | 79 | 1011.8 |
| 20260510140900 | 69 | 12 | 1.0 | 2.0 | 0.00 | 0.00 | 0.00 | 79 | 1011.7 |
| 20260510140356 | 69 | 17 | 1.0 | 2.0 | 0.00 | 0.00 | 0.00 | 80 | 1011.7 |
| 20260510135855 | 68 | 25 | 0.0 | 1.0 | 0.00 | 0.00 | 0.00 | 81 | 1012.0 |
| 20260510135351 | 67 | 21 | 0.0 | 1.0 | 0.00 | 0.00 | 0.00 | 81 | 1011.6 |
| 20260510134849 | 67 | 21 | 1.0 | 1.0 | 0.00 | 0.00 | 0.00 | 83 | 1011.7 |
| 20260510134345 | 67 | 21 | 1.0 | 1.0 | 0.00 | 0.00 | 0.00 | 83 | 1011.7 |
| 20260510133841 | 67 | 21 | 1.0 | 1.0 | 0.00 | 0.00 | 0.00 | 84 | 1011.7 |
| 20260510133338 | 66 | 15 | 1.0 | 2.0 | 0.00 | 0.00 | 0.00 | 84 | 1011.7 |
| 20260510132833 | 66 | 11 | 1.0 | 2.0 | 0.00 | 0.00 | 0.00 | 84 | 1011.8 |
| 20260510132332 | 66 | 19 | 1.0 | 1.0 | 0.00 | 0.00 | 0.00 | 85 | 1011.7 |
| 20260510131828 | 66 | 29 | 0.0 | 2.0 | 0.00 | 0.00 | 0.00 | 85 | 1012.0 |
| 20260510131326 | 66 | 15 | 1.0 | 2.0 | 0.00 | 0.00 | 0.00 | 85 | 1011.7 |
| 20260510130822 | 65 | 22 | 1.0 | 2.0 | 0.00 | 0.00 | 0.00 | 86 | 1011.7 |
| 20260510130319 | 64 | 31 | 1.0 | 1.0 | 0.00 | 0.00 | 0.00 | 87 | 1011.9 |
| 20260510125816 | 64 | 31 | 0.0 | 3.0 | 0.00 | 0.00 | 0.00 | 88 | 1011.7 |
| 20260510125312 | 64 | 354 | 3.0 | 3.0 | 0.00 | 0.00 | 0.00 | 89 | 1011.6 |
| 20260510124809 | 64 | 319 | 3.0 | 3.0 | 0.00 | 0.00 | 0.00 | 90 | 1011.7 |
| 20260510124306 | 63 | 27 | 1.0 | 1.0 | 0.00 | 0.00 | 0.00 | 91 | 1011.8 |
| 20260510123801 | 63 | 12 | 1.0 | 2.0 | 0.00 | 0.00 | 0.00 | 92 | 1011.5 |
| 20260510123257 | 63 | 25 | 1.0 | 2.0 | 0.00 | 0.00 | 0.00 | 93 | 1011.6 |
| 20260510122753 | 63 | 25 | 0.0 | 1.0 | 0.00 | 0.00 | 0.00 | 93 | 1011.5 |
| 20260510122250 | 62 | 28 | 0.0 | 1.0 | 0.00 | 0.00 | 0.00 | 93 | 1011.5 |
| 20260510121746 | 62 | 28 | 0.0 | 1.0 | 0.00 | 0.00 | 0.00 | 93 | 1011.4 |
| 20260510121244 | 62 | 16 | 1.0 | 1.0 | 0.00 | 0.00 | 0.00 | 93 | 1011.3 |
| 20260510120741 | 62 | 20 | 1.0 | 2.0 | 0.00 | 0.00 | 0.00 | 93 | 1011.3 |
| 20260510120238 | 62 | 23 | 0.0 | 1.0 | 0.00 | 0.00 | 0.00 | 93 | 1011.4 |
| 20260510115733 | 61 | 23 | 1.0 | 1.0 | 0.00 | 0.00 | 0.00 | 93 | 1011.2 |
| 20260510115232 | 61 | 21 | 1.0 | 1.0 | 0.00 | 0.00 | 0.00 | 93 | 1011.3 |
| 20260510114727 | 62 | 14 | 1.0 | 1.0 | 0.00 | 0.00 | 0.00 | 93 | 1011.1 |
| 20260510114224 | 61 | 337 | 2.0 | 2.0 | 0.00 | 0.00 | 0.00 | 93 | 1011.0 |
| 20260510113719 | 62 | 346 | 2.0 | 2.0 | 0.00 | 0.00 | 0.00 | 93 | 1011.0 |
| 20260510113216 | 61 | 14 | 1.0 | 1.0 | 0.00 | 0.00 | 0.00 | 93 | 1010.9 |
| 20260510112712 | 61 | 10 | 1.0 | 1.0 | 0.00 | 0.00 | 0.00 | 93 | 1010.8 |
| 20260510112210 | 61 | 14 | 0.0 | 1.0 | 0.00 | 0.00 | 0.00 | 93 | 1010.8 |
| 20260510111705 | 61 | 13 | 0.0 | 1.0 | 0.00 | 0.00 | 0.00 | 93 | 1010.5 |
| 20260510111203 | 61 | 13 | 0.0 | 1.0 | 0.00 | 0.00 | 0.00 | 93 | 1010.6 |
| 20260510110656 | 61 | 17 | 0.0 | 1.0 | 0.00 | 0.00 | 0.00 | 93 | 1010.7 |
| 20260510110155 | 61 | 17 | 0.0 | 0.0 | 0.00 | 0.00 | 0.00 | 93 | 1010.6 |
| 20260510105650 | 61 | 17 | 0.0 | 1.0 | 0.00 | 0.00 | 0.00 | 93 | 1010.3 |
| 20260510105149 | 62 | 17 | 0.0 | 1.0 | 0.00 | 0.00 | 0.00 | 93 | 1010.5 |
| 20260510104647 | 62 | 17 | 0.0 | 1.0 | 0.00 | 0.00 | 0.00 | 92 | 1010.3 |
| 20260510104144 | 62 | 16 | 1.0 | 1.0 | 0.00 | 0.00 | 0.00 | 92 | 1010.1 |
| 20260510103640 | 62 | 26 | 0.0 | 0.0 | 0.00 | 0.00 | 0.00 | 92 | 1010.1 |
| 20260510103137 | 62 | 25 | 1.0 | 1.0 | 0.00 | 0.00 | 0.00 | 92 | 1010.2 |
| 20260510102632 | 61 | 33 | 0.0 | 0.0 | 0.00 | 0.00 | 0.00 | 92 | 1009.8 |
| 20260510102128 | 62 | 33 | 1.0 | 1.0 | 0.00 | 0.00 | 0.00 | 92 | 1009.7 |
| 20260510101626 | 62 | 38 | 0.0 | 0.0 | 0.00 | 0.00 | 0.00 | 92 | 1009.7 |
| 20260510101124 | 61 | 40 | 0.0 | 0.0 | 0.00 | 0.00 | 0.00 | 92 | 1009.7 |
| 20260510100620 | 62 | 40 | 0.0 | 0.0 | 0.00 | 0.00 | 0.00 | 92 | 1009.6 |
| 20260510100118 | 62 | 43 | 0.0 | 1.0 | 0.00 | 0.00 | 0.00 | 92 | 1009.4 |
| 20260510095613 | 62 | 43 | 0.0 | 1.0 | 0.00 | 0.00 | 0.00 | 92 | 1009.5 |
| 20260510095113 | 62 | 40 | 0.0 | 0.0 | 0.00 | 0.00 | 0.00 | 92 | 1009.4 |
| 20260510094612 | 62 | 42 | 0.0 | 0.0 | 0.00 | 0.00 | 0.00 | 92 | 1009.3 |
| 20260510094108 | 62 | 20 | 0.0 | 1.0 | 0.00 | 0.00 | 0.00 | 92 | 1009.6 |
| 20260510093604 | 62 | 23 | 0.0 | 1.0 | 0.00 | 0.00 | 0.00 | 92 | 1009.4 |
| 20260510093101 | 62 | 27 | 0.0 | 0.0 | 0.00 | 0.00 | 0.00 | 91 | 1009.3 |
| 20260510092558 | 63 | 27 | 0.0 | 1.0 | 0.00 | 0.00 | 0.00 | 92 | 1009.4 |
| 20260510092057 | 63 | 1 | 1.0 | 2.0 | 0.00 | 0.00 | 0.00 | 92 | 1009.2 |
| 20260510091555 | 63 | 355 | 2.0 | 2.0 | 0.00 | 0.00 | 0.00 | 92 | 1009.4 |
| 20260510091051 | 63 | 315 | 3.0 | 3.0 | 0.00 | 0.00 | 0.00 | 92 | 1009.1 |
| 20260510090548 | 63 | 4 | 1.0 | 2.0 | 0.00 | 0.00 | 0.00 | 92 | 1009.3 |
| 20260510090043 | 63 | 9 | 1.0 | 2.0 | 0.00 | 0.00 | 0.00 | 91 | 1009.1 |
| 20260510085538 | 63 | 9 | 1.0 | 2.0 | 0.00 | 0.00 | 0.00 | 92 | 1008.9 |
| 20260510085035 | 63 | 358 | 2.0 | 2.0 | 0.00 | 0.00 | 0.00 | 92 | 1008.9 |
| 20260510084531 | 63 | 23 | 0.0 | 0.0 | 0.00 | 0.00 | 0.00 | 92 | 1008.7 |
| 20260510084028 | 63 | 23 | 0.0 | 0.0 | 0.00 | 0.00 | 0.00 | 92 | 1008.6 |
| 20260510083525 | 63 | 24 | 0.0 | 0.0 | 0.00 | 0.00 | 0.00 | 92 | 1008.9 |
| 20260510083021 | 63 | 28 | 0.0 | 0.0 | 0.00 | 0.00 | 0.00 | 92 | 1008.6 |
| 20260510082519 | 63 | 33 | 0.0 | 0.0 | 0.00 | 0.00 | 0.00 | 92 | 1008.7 |
| 20260510082018 | 63 | 33 | 0.0 | 0.0 | 0.00 | 0.00 | 0.00 | 92 | 1008.8 |
| 20260510081514 | 63 | 34 | 0.0 | 0.0 | 0.00 | 0.00 | 0.00 | 92 | 1008.6 |
| 20260510081010 | 63 | 16 | 1.0 | 2.0 | 0.00 | 0.00 | 0.00 | 92 | 1008.5 |
| 20260510080509 | 63 | 316 | 3.0 | 3.0 | 0.00 | 0.00 | 0.00 | 92 | 1008.7 |
| 20260510080006 | 63 | 31 | 0.0 | 2.0 | 0.00 | 0.00 | 0.00 | 92 | 1008.7 |
| 20260510075503 | 63 | 19 | 1.0 | 2.0 | 0.00 | 0.00 | 0.00 | 92 | 1008.6 |
| 20260510075000 | 63 | 4 | 1.0 | 2.0 | 0.00 | 0.00 | 0.00 | 92 | 1008.4 |
| 20260510074457 | 63 | 9 | 2.0 | 2.0 | 0.00 | 0.00 | 0.00 | 92 | 1008.5 |
| 20260510073953 | 63 | 3 | 1.0 | 2.0 | 0.00 | 0.00 | 0.00 | 92 | 1008.3 |
| 20260510073449 | 63 | 43 | 0.0 | 0.0 | 0.00 | 0.00 | 0.00 | 92 | 1008.3 |
| 20260510072946 | 63 | 43 | 0.0 | 1.0 | 0.00 | 0.00 | 0.00 | 92 | 1008.2 |
| 20260510072443 | 63 | 41 | 0.0 | 0.0 | 0.00 | 0.00 | 0.00 | 92 | 1008.3 |
| 20260510071938 | 63 | 46 | 0.0 | 0.0 | 0.00 | 0.00 | 0.00 | 92 | 1008.3 |
| 20260510071435 | 64 | 12 | 1.0 | 2.0 | 0.00 | 0.00 | 0.00 | 92 | 1008.3 |
| 20260510070933 | 64 | 359 | 1.0 | 2.0 | 0.00 | 0.00 | 0.00 | 91 | 1008.3 |
| 20260510070430 | 63 | 2 | 2.0 | 2.0 | 0.00 | 0.00 | 0.00 | 91 | 1008.3 |
| 20260510065926 | 63 | 30 | 0.0 | 0.0 | 0.00 | 0.00 | 0.00 | 91 | 1008.4 |
| 20260510065423 | 63 | 30 | 0.0 | 0.0 | 0.00 | 0.00 | 0.00 | 91 | 1008.4 |
| 20260510064919 | 63 | 30 | 0.0 | 0.0 | 0.00 | 0.00 | 0.00 | 91 | 1008.3 |
| 20260510064417 | 63 | 30 | 0.0 | 0.0 | 0.00 | 0.00 | 0.00 | 91 | 1008.4 |
| 20260510063913 | 63 | 29 | 0.0 | 0.0 | 0.00 | 0.00 | 0.00 | 91 | 1008.5 |
| 20260510063409 | 63 | 29 | 0.0 | 0.0 | 0.00 | 0.00 | 0.00 | 91 | 1008.2 |
| 20260510062907 | 63 | 29 | 0.0 | 0.0 | 0.00 | 0.00 | 0.00 | 91 | 1008.4 |
| 20260510062401 | 63 | 30 | 0.0 | 0.0 | 0.00 | 0.00 | 0.00 | 91 | 1008.4 |
| 20260510061857 | 63 | 30 | 0.0 | 0.0 | 0.00 | 0.00 | 0.00 | 91 | 1008.1 |
| 20260510061354 | 63 | 30 | 0.0 | 0.0 | 0.00 | 0.00 | 0.00 | 91 | 1008.5 |
| 20260510060850 | 63 | 29 | 0.0 | 0.0 | 0.00 | 0.00 | 0.00 | 90 | 1008.4 |
| 20260510060347 | 64 | 29 | 0.0 | 0.0 | 0.00 | 0.00 | 0.00 | 90 | 1008.4 |
| 20260510055844 | 64 | 29 | 0.0 | 0.0 | 0.00 | 0.00 | 0.00 | 90 | 1008.6 |
| 20260510055343 | 64 | 29 | 0.0 | 0.0 | 0.00 | 0.00 | 0.00 | 90 | 1008.3 |
| 20260510054842 | 64 | 29 | 0.0 | 0.0 | 0.00 | 0.00 | 0.00 | 90 | 1008.3 |
| 20260510054338 | 64 | 29 | 0.0 | 0.0 | 0.00 | 0.00 | 0.00 | 90 | 1008.5 |
| 20260510053833 | 64 | 29 | 0.0 | 0.0 | 0.00 | 0.00 | 0.00 | 90 | 1008.6 |
| 20260510053329 | 64 | 30 | 0.0 | 0.0 | 0.00 | 0.00 | 0.00 | 90 | 1008.7 |
| 20260510052826 | 64 | 29 | 0.0 | 0.0 | 0.00 | 0.00 | 0.00 | 90 | 1008.7 |
| 20260510052321 | 64 | 29 | 0.0 | 0.0 | 0.00 | 0.00 | 0.00 | 90 | 1008.7 |
| 20260510051818 | 64 | 30 | 0.0 | 0.0 | 0.00 | 0.00 | 0.00 | 90 | 1008.5 |
| 20260510051315 | 64 | 29 | 0.0 | 0.0 | 0.00 | 0.00 | 0.00 | 90 | 1008.9 |
| 20260510050812 | 64 | 29 | 0.0 | 1.0 | 0.00 | 0.00 | 0.00 | 90 | 1008.6 |
| 20260510050308 | 64 | 29 | 0.0 | 0.0 | 0.00 | 0.00 | 0.00 | 90 | 1008.7 |
| 20260510045805 | 64 | 30 | 0.0 | 0.0 | 0.00 | 0.00 | 0.00 | 89 | 1008.7 |
| 20260510045305 | 64 | 30 | 0.0 | 0.0 | 0.00 | 0.00 | 0.00 | 89 | 1008.8 |
| 20260510044759 | 64 | 29 | 0.0 | 0.0 | 0.00 | 0.00 | 0.00 | 89 | 1008.6 |
| 20260510044256 | 64 | 29 | 0.0 | 0.0 | 0.00 | 0.00 | 0.00 | 89 | 1008.7 |
| 20260510043752 | 64 | 29 | 0.0 | 0.0 | 0.00 | 0.00 | 0.00 | 89 | 1008.7 |
| 20260510043248 | 64 | 29 | 0.0 | 0.0 | 0.00 | 0.00 | 0.00 | 89 | 1008.7 |
| 20260510042746 | 64 | 30 | 0.0 | 0.0 | 0.00 | 0.00 | 0.00 | 89 | 1008.8 |
| 20260510042241 | 64 | 30 | 0.0 | 0.0 | 0.00 | 0.00 | 0.00 | 89 | 1008.7 |
| 20260510041738 | 64 | 30 | 0.0 | 0.0 | 0.00 | 0.00 | 0.00 | 89 | 1008.6 |
| 20260510041236 | 64 | 30 | 0.0 | 0.0 | 0.00 | 0.00 | 0.00 | 89 | 1008.7 |
| 20260510040733 | 64 | 30 | 0.0 | 0.0 | 0.00 | 0.00 | 0.00 | 89 | 1008.7 |
| 20260510040230 | 64 | 30 | 0.0 | 0.0 | 0.00 | 0.00 | 0.00 | 89 | 1008.7 |
| 20260510035725 | 64 | 30 | 0.0 | 0.0 | 0.00 | 0.00 | 0.00 | 89 | 1008.6 |
| 20260510035221 | 65 | 30 | 0.0 | 0.0 | 0.00 | 0.00 | 0.00 | 89 | 1008.6 |
| 20260510034717 | 65 | 30 | 0.0 | 0.0 | 0.00 | 0.00 | 0.00 | 89 | 1008.6 |
| 20260510034215 | 65 | 30 | 0.0 | 0.0 | 0.00 | 0.00 | 0.00 | 88 | 1008.6 |
| 20260510033711 | 65 | 30 | 0.0 | 0.0 | 0.00 | 0.00 | 0.00 | 88 | 1008.6 |
| 20260510033209 | 65 | 30 | 0.0 | 0.0 | 0.00 | 0.00 | 0.00 | 88 | 1008.6 |
| 20260510032705 | 64 | 30 | 0.0 | 0.0 | 0.00 | 0.00 | 0.00 | 88 | 1008.6 |
| 20260510032201 | 65 | 30 | 0.0 | 0.0 | 0.00 | 0.00 | 0.00 | 88 | 1008.5 |
| 20260510031655 | 65 | 30 | 0.0 | 0.0 | 0.00 | 0.00 | 0.00 | 88 | 1008.4 |
| 20260510031152 | 65 | 27 | 0.0 | 0.0 | 0.00 | 0.00 | 0.00 | 87 | 1008.8 |
| 20260510030646 | 65 | 27 | 0.0 | 0.0 | 0.00 | 0.00 | 0.00 | 87 | 1008.7 |
| 20260510030144 | 65 | 27 | 0.0 | 0.0 | 0.00 | 0.00 | 0.00 | 87 | 1008.6 |
| 20260510025641 | 65 | 27 | 0.0 | 0.0 | 0.00 | 0.00 | 0.00 | 87 | 1008.8 |
| 20260510025139 | 66 | 27 | 0.0 | 0.0 | 0.00 | 0.00 | 0.00 | 87 | 1008.5 |
| 20260510024635 | 66 | 27 | 0.0 | 0.0 | 0.00 | 0.00 | 0.00 | 87 | 1008.7 |
| 20260510024132 | 66 | 27 | 0.0 | 0.0 | 0.00 | 0.00 | 0.00 | 86 | 1008.5 |
| 20260510023628 | 66 | 27 | 0.0 | 0.0 | 0.00 | 0.00 | 0.00 | 86 | 1008.6 |
| 20260510023125 | 66 | 27 | 0.0 | 0.0 | 0.00 | 0.00 | 0.00 | 86 | 1008.4 |
| 20260510022625 | 66 | 27 | 0.0 | 0.0 | 0.00 | 0.00 | 0.00 | 86 | 1008.5 |
| 20260510022120 | 66 | 27 | 0.0 | 0.0 | 0.00 | 0.00 | 0.00 | 85 | 1008.5 |
| 20260510021616 | 67 | 16 | 0.0 | 1.0 | 0.00 | 0.00 | 0.00 | 86 | 1008.5 |
| 20260510021114 | 67 | 15 | 0.0 | 0.0 | 0.00 | 0.00 | 0.00 | 85 | 1008.5 |
| 20260510020614 | 67 | 15 | 0.0 | 0.0 | 0.00 | 0.00 | 0.00 | 85 | 1008.4 |
| 20260510020109 | 67 | 15 | 0.0 | 1.0 | 0.00 | 0.00 | 0.00 | 85 | 1008.4 |
| 20260510015606 | 68 | 14 | 0.0 | 1.0 | 0.00 | 0.00 | 0.00 | 85 | 1008.3 |
| 20260510015102 | 68 | 10 | 1.0 | 2.0 | 0.00 | 0.00 | 0.00 | 84 | 1008.4 |
| 20260510014558 | 68 | 8 | 2.0 | 2.0 | 0.00 | 0.00 | 0.00 | 83 | 1008.1 |
| 20260510014056 | 68 | 13 | 1.0 | 2.0 | 0.00 | 0.00 | 0.00 | 83 | 1008.3 |
| 20260510013550 | 68 | 7 | 1.0 | 2.0 | 0.00 | 0.00 | 0.00 | 83 | 1007.9 |
| 20260510013046 | 68 | 4 | 2.0 | 2.0 | 0.00 | 0.00 | 0.00 | 83 | 1007.9 |
| 20260510012539 | 68 | 355 | 2.0 | 2.0 | 0.00 | 0.00 | 0.00 | 83 | 1007.9 |
| 20260510012037 | 68 | 345 | 2.0 | 2.0 | 0.00 | 0.00 | 0.00 | 82 | 1007.8 |
| 20260510011536 | 68 | 329 | 2.0 | 3.0 | 0.00 | 0.00 | 0.00 | 82 | 1007.9 |
| 20260510011032 | 68 | 346 | 2.0 | 2.0 | 0.00 | 0.00 | 0.00 | 82 | 1007.8 |
| 20260510010529 | 68 | 351 | 2.0 | 2.0 | 0.00 | 0.00 | 0.00 | 82 | 1007.7 |
| 20260510010026 | 68 | 338 | 2.0 | 2.0 | 0.00 | 0.00 | 0.00 | 82 | 1008.0 |
| 20260510005521 | 69 | 349 | 2.0 | 2.0 | 0.00 | 0.00 | 0.00 | 81 | 1007.5 |
| 20260510005020 | 69 | 12 | 1.0 | 2.0 | 0.00 | 0.00 | 0.00 | 81 | 1007.6 |
| 20260510004517 | 69 | 2 | 2.0 | 2.0 | 0.00 | 0.00 | 0.00 | 81 | 1007.4 |
| 20260510004015 | 69 | 359 | 2.0 | 2.0 | 0.00 | 0.00 | 0.00 | 80 | 1007.3 |
| 20260510003511 | 69 | 358 | 1.0 | 2.0 | 0.00 | 0.00 | 0.00 | 79 | 1007.4 |
| 20260510003006 | 69 | 341 | 2.0 | 2.0 | 0.00 | 0.00 | 0.00 | 79 | 1007.0 |
| 20260510002502 | 69 | 330 | 2.0 | 3.0 | 0.00 | 0.00 | 0.00 | 78 | 1007.2 |
| 20260510002000 | 70 | 327 | 2.0 | 3.0 | 0.00 | 0.00 | 0.00 | 79 | 1007.1 |
| 20260510001457 | 70 | 326 | 3.0 | 3.0 | 0.00 | 0.00 | 0.00 | 78 | 1006.9 |
| 20260510000955 | 70 | 332 | 3.0 | 3.0 | 0.00 | 0.00 | 0.00 | 78 | 1006.9 |
| 20260510000450 | 70 | 343 | 2.0 | 3.0 | 0.00 | 0.00 | 0.00 | 78 | 1006.8 |
| 20260509235947 | 70 | 325 | 2.0 | 3.0 | 0.00 | 0.00 | 0.00 | 77 | 1006.6 |
| 20260509235444 | 70 | 329 | 3.0 | 3.0 | 0.00 | 0.00 | 0.00 | 77 | 1006.6 |
| 20260509234940 | 71 | 313 | 3.0 | 3.0 | 0.00 | 0.00 | 0.00 | 77 | 1006.7 |
| 20260509234437 | 71 | 316 | 3.0 | 3.0 | 0.00 | 0.00 | 0.00 | 76 | 1006.5 |
| 20260509233935 | 71 | 306 | 3.0 | 5.0 | 0.00 | 0.00 | 0.00 | 76 | 1006.6 |
| 20260509233432 | 71 | 333 | 2.0 | 3.0 | 0.00 | 0.00 | 0.00 | 76 | 1006.3 |
| 20260509232928 | 71 | 328 | 3.0 | 3.0 | 0.00 | 0.00 | 0.00 | 75 | 1006.6 |
| 20260509232426 | 71 | 345 | 2.0 | 3.0 | 0.00 | 0.00 | 0.00 | 75 | 1006.4 |
| 20260509231921 | 71 | 314 | 3.0 | 5.0 | 0.00 | 0.00 | 0.00 | 75 | 1006.4 |
| 20260509231418 | 71 | 309 | 3.0 | 3.0 | 0.00 | 0.00 | 0.00 | 75 | 1006.3 |
| 20260509230916 | 71 | 288 | 6.0 | 6.0 | 0.00 | 0.00 | 0.00 | 74 | 1006.6 |
| 20260509230413 | 72 | 312 | 3.0 | 3.0 | 0.00 | 0.00 | 0.00 | 74 | 1006.2 |
| 20260509225909 | 72 | 321 | 3.0 | 5.0 | 0.00 | 0.00 | 0.00 | 73 | 1006.4 |
| 20260509225406 | 72 | 292 | 4.0 | 5.0 | 0.00 | 0.00 | 0.00 | 73 | 1006.3 |
| 20260509224901 | 72 | 291 | 5.0 | 6.0 | 0.00 | 0.00 | 0.00 | 73 | 1006.5 |
| 20260509224357 | 72 | 307 | 4.0 | 5.0 | 0.00 | 0.00 | 0.00 | 73 | 1006.4 |
| 20260509223855 | 72 | 309 | 4.0 | 6.0 | 0.00 | 0.00 | 0.00 | 73 | 1006.3 |
| 20260509223351 | 72 | 296 | 4.0 | 7.0 | 0.00 | 0.00 | 0.00 | 73 | 1006.1 |
| 20260509222848 | 72 | 304 | 4.0 | 6.0 | 0.00 | 0.00 | 0.00 | 74 | 1006.3 |
| 20260509222343 | 72 | 308 | 5.0 | 7.0 | 0.00 | 0.00 | 0.00 | 73 | 1005.9 |
| 20260509221838 | 72 | 295 | 5.0 | 6.0 | 0.00 | 0.00 | 0.00 | 72 | 1006.3 |
| 20260509221336 | 72 | 243 | 4.0 | 5.0 | 0.00 | 0.00 | 0.00 | 72 | 1006.4 |
| 20260509220831 | 72 | 296 | 5.0 | 7.0 | 0.00 | 0.00 | 0.00 | 73 | 1006.2 |
| 20260509220327 | 72 | 295 | 4.0 | 6.0 | 0.00 | 0.00 | 0.00 | 73 | 1006.0 |
| 20260509215823 | 72 | 256 | 4.0 | 8.0 | 0.00 | 0.00 | 0.00 | 74 | 1006.3 |
| 20260509215320 | 72 | 316 | 3.0 | 7.0 | 0.00 | 0.00 | 0.00 | 74 | 1006.3 |
| 20260509214817 | 72 | 308 | 4.0 | 7.0 | 0.00 | 0.00 | 0.00 | 75 | 1006.3 |
| 20260509214314 | 72 | 283 | 5.0 | 7.0 | 0.00 | 0.00 | 0.00 | 73 | 1006.2 |
| 20260509213811 | 72 | 319 | 3.0 | 6.0 | 0.00 | 0.00 | 0.00 | 74 | 1006.0 |
| 20260509213306 | 72 | 302 | 5.0 | 8.0 | 0.00 | 0.00 | 0.00 | 74 | 1006.3 |
| 20260509212804 | 72 | 251 | 5.0 | 6.0 | 0.00 | 0.00 | 0.00 | 73 | 1006.1 |
| 20260509212305 | 72 | 278 | 5.0 | 10.0 | 0.00 | 0.00 | 0.00 | 74 | 1006.2 |
| 20260509211756 | 72 | 299 | 3.0 | 6.0 | 0.00 | 0.00 | 0.00 | 74 | 1006.1 |
| 20260509211253 | 72 | 287 | 6.0 | 7.0 | 0.00 | 0.00 | 0.00 | 73 | 1006.0 |
| 20260509210750 | 72 | 294 | 3.0 | 7.0 | 0.00 | 0.00 | 0.00 | 73 | 1006.4 |
| 20260509210248 | 72 | 268 | 4.0 | 9.0 | 0.00 | 0.00 | 0.00 | 73 | 1006.3 |
| 20260509205747 | 72 | 283 | 4.0 | 6.0 | 0.00 | 0.00 | 0.00 | 73 | 1006.3 |
| 20260509205242 | 72 | 255 | 3.0 | 5.0 | 0.00 | 0.00 | 0.00 | 73 | 1006.3 |
| 20260509204738 | 72 | 290 | 5.0 | 7.0 | 0.00 | 0.00 | 0.00 | 73 | 1006.4 |
| 20260509204235 | 72 | 287 | 3.0 | 5.0 | 0.00 | 0.00 | 0.00 | 73 | 1006.2 |
| 20260509203731 | 72 | 330 | 3.0 | 6.0 | 0.00 | 0.00 | 0.00 | 72 | 1006.4 |
| 20260509203229 | 72 | 321 | 3.0 | 7.0 | 0.00 | 0.00 | 0.00 | 73 | 1006.5 |
| 20260509202724 | 72 | 272 | 6.0 | 7.0 | 0.00 | 0.00 | 0.00 | 74 | 1006.5 |
| 20260509202220 | 72 | 277 | 11.0 | 14.0 | 0.00 | 0.00 | 0.00 | 73 | 1006.6 |
| 20260509201715 | 72 | 295 | 5.0 | 7.0 | 0.00 | 0.00 | 0.00 | 73 | 1006.7 |
| 20260509201212 | 72 | 203 | 3.0 | 7.0 | 0.00 | 0.00 | 0.00 | 73 | 1006.8 |
| 20260509200708 | 72 | 285 | 5.0 | 7.0 | 0.00 | 0.00 | 0.00 | 72 | 1006.7 |
| 20260509200203 | 71 | 192 | 4.0 | 7.0 | 0.00 | 0.00 | 0.00 | 73 | 1006.9 |
| 20260509195700 | 71 | 246 | 5.0 | 8.0 | 0.00 | 0.00 | 0.00 | 73 | 1006.7 |
| 20260509195155 | 71 | 270 | 4.0 | 7.0 | 0.00 | 0.00 | 0.00 | 74 | 1006.8 |
| 20260509194649 | 71 | 289 | 5.0 | 8.0 | 0.00 | 0.00 | 0.00 | 73 | 1006.9 |
| 20260509194146 | 71 | 236 | 5.0 | 7.0 | 0.00 | 0.00 | 0.00 | 73 | 1007.0 |
| 20260509193642 | 71 | 335 | 4.0 | 9.0 | 0.00 | 0.00 | 0.00 | 74 | 1006.9 |
| 20260509193138 | 71 | 285 | 10.0 | 10.0 | 0.00 | 0.00 | 0.00 | 73 | 1006.9 |